Location: Blairvadach
(56.2780°N, 6.9720°W)
Time: 09:50:55
(UTC+01:00)

Envisat - Pass Details

Date: 20 February 2019
Orbit: 764 x 766 km, 98.1° (Epoch: 23 October)

Event Time Altitude Azimuth Distance (km) Brightness Sun altitude
Rises 18:52:51 0° 165° (SSE) 3,223 6.1 -10.5°
Reaches altitude 10° 18:55:09 10° 167° (SSE) 2,301 5.4 -10.9°
Maximum altitude 19:00:14 81° 254° (WSW) 783 3.1 -11.6°
Drops below altitude 10° 19:05:22 10° 343° (NNW) 2,316 5.7 -12.3°
Sets 19:07:41 0° 344° (NNW) 3,247 6.4 -12.6°
